This demonstration page uses our WeatherBlox Daily Observations layout. Learn more.

Left ArrowRight Arrow

36.17497, -115.13722

Hourly Observations for August 10, 2022

Temp ( °F °C ) Dew Point ( °F °C ) Humidity (%) Winds ( mph kmh ) Pressure ( in mb ) Visibility ( mi km ) Precip ( " mm )
12:53 am 00:53 Clear 86 30 64 17.8 48 48 Calm 29.97 1015 10 16 0.00 0.00
1:53 am 01:53 Clear 85 29.4 65 18.3 51 51 NE 6 9 29.97 1015 10 16 0.00 0.00
2:53 am 02:53 Clear 85 29.4 65 18.3 51 51 NE 3 6 29.97 1015 10 16 0.00 0.00
3:53 am 03:53 Clear 84 28.9 64 17.8 51 51 ENE 5 7 29.97 1015 10 16 0.00 0.00
4:53 am 04:53 Clear 83 28.3 66 18.9 57 57 ESE 6 9 29.98 1015 10 16 0.00 0.00
5:53 am 05:53 Clear 82 27.8 66 18.9 58 58 SE 7 11 30.00 1016 10 16 0.00 0.00
6:53 am 06:53 Sunny 83 28.3 65 18.3 55 55 E 8 13 30.02 1017 10 16 0.00 0.00
7:53 am 07:53 Sunny 86 30 64 17.8 48 48 E 8 13 30.03 1017 10 16 0.00 0.00
8:53 am 08:53 Sunny 87 30.6 64 17.8 46 46 ESE 8 13 30.04 1017 10 16 0.00 0.00
9:53 am 09:53 Sunny 89 31.7 64 17.8 44 44 VRB 5 7 30.04 1017 10 16 0.00 0.00
10:53 am 10:53 Sunny 92 33.3 63 17.2 38 38 ENE 6 9 30.04 1017 10 16 0.00 0.00
11:53 am 11:53 Sunny 95 35 63 17.2 35 35 ENE 8 13 30.01 1016 10 16 0.00 0.00
12:53 pm 12:53 Sunny 94 34.4 62 16.7 35 35 SE 8 13 30.00 1016 10 16 0.00 0.00
1:53 pm 13:53 Sunny 94 34.4 62 16.7 35 35 S 6 9 29.98 1015 10 16 0.00 0.00
2:53 pm 14:53 Sunny 94 34.4 62 16.7 35 35 SSE 15 24 29.97 1015 10 16 0.00 0.00
3:53 pm 15:53 Sunny 92 33.3 62 16.7 37 37 SSW 10 17 29.96 1014 10 16 0.00 0.00
4:53 pm 16:53 Sunny 93 33.9 63 17.2 37 37 Calm 29.95 1014 10 16 0.00 0.00
5:53 pm 17:53 Sunny 95 35 61 16.1 33 33 E 8 13 29.96 1014 10 16 0.00 0.00
6:53 pm 18:53 Sunny 95 35 57 13.9 28 28 ESE 9 15 29.96 1015 10 16 0.00 0.00
7:53 pm 19:53 Clear 92 33.3 58 14.4 32 32 E 8 13 29.99 1016 10 16 0.00 0.00
8:53 pm 20:53 Clear 90 32.2 58 14.4 34 34 E 6 9 29.99 1016 10 16 0.00 0.00
9:53 pm 21:53 Clear 89 31.7 58 14.4 35 35 ENE 3 6 30.01 1016 10 16 0.00 0.00
10:53 pm 22:53 Clear 89 31.7 59 15 36 36 ENE 3 6 30.00 1016 10 16 0.00 0.00
11:53 pm 23:53 Clear 89 31.7 60 15.6 38 38 Calm 30.00 1016 10 16 0.00 0.00

Powered by AerisWeather